User: anonymous   Login
Location: LewisvilleTX
(33.0462°N, 96.9942°W)
Time: 06:11:04
(UTC+00:00)
Language:

Envisat - Orbit

View from above orbital plane
View from above orbital plane
View from above satellite
View from above satellite

Ground track
Ground track

The orbit data is extracted from the following two-line orbital elements,

1 27386U 02009A   21295.73005209  .00000042  00000-0  27376-4 0  9997
2 27386  98.1602 283.3526 0001238  90.8582  81.7823 14.38048779 29369
Epoch (UTC): 22 October 2021 17:31:16
Eccentricity: 0.0001238
inclination: 98.1602°
perigee height: 764 km
apogee height: 766 km
right ascension of ascending node: 283.3526°
argument of perigee: 90.8582°
revolutions per day: 14.38048779
mean anomaly at epoch: 81.7823°
orbit number at epoch: 2936

The dashed part of the orbit path shows where the satellite is in the earth's shadow,  

DLR